Home   Weather   Oakhurst   Past weeks
Flag for USA

Past Weather in Oakhurst, California, USA — Yesterday and Last 2 Weeks

Now
69 °F

Sunny.


Feels Like: 69 °F
Forecast: 99 / 69 °F
Wind: 6 mph from Northwest

Location: Fresno Air Terminal

Current Time: Jul 21, 2019 at 8:10:33 am

Latest Report: Jul 21, 2019 at 6:53 am


Visibility: 10 mi

Pressure: 29.87 "Hg

Humidity: 61%

Dew Point: 55 °F

Location of OakhurstLocation

Past Weather in Oakhurst — Graph

°F

Oakhurst Temperature Yesterday

Maximum temperature yesterday: 94 °F (at 4:53 pm)
Minimum temperature yesterday: 67 °F (at 5:53 am)
Average temperature yesterday: 81 °F

High & Low Weather Summary for the Past Weeks

 TemperatureHumidityPressure
High104 °F (Jul 14, 4:53 pm)70% (Jul 10, 5:53 am)30.04 "Hg (Jul 10, 5:53 am)
Low62 °F (Jul 9, 5:53 am)10% (Jul 6, 4:53 pm)29.75 "Hg (Jul 13, 6:53 pm)
Average83 °F37%29.87 "Hg
* Reported Jul 6 5:53 am — Jul 21 5:53 am, Oakhurst. Weather by CustomWeather, © 2019

Note: Actual official high and low records may vary slightly from our data, if they occured in-between our weather recording intervals... More about our weather records

Advertising

Oakhurst Weather History for the Previous 24 Hours

Scroll right to see more
 ConditionsComfort  
Time TempWeatherWind HumidityBarometerVisibility
5:53 am
Sun, Jul 21
69 °FClear.7 mph61%29.85 "Hg10 mi
4:53 am71 °FClear.6 mph57%29.83 "Hg10 mi
3:53 am72 °FClear.6 mph52%29.83 "Hg10 mi
2:53 am74 °FClear.8 mph46%29.83 "Hg10 mi
1:53 am76 °FClear.9 mph50%29.83 "Hg10 mi
12:53 am78 °FClear.9 mph46%29.82 "Hg10 mi
11:53 pm
Sat, Jul 20
79 °FClear.10 mph47%29.82 "Hg10 mi
10:53 pm81 °FClear.12 mph47%29.82 "Hg10 mi
9:53 pm84 °FClear.13 mph43%29.81 "Hg10 mi
8:53 pm86 °FPassing clouds.10 mph40%29.79 "Hg10 mi
7:53 pm90 °FPassing clouds.12 mph34%29.78 "Hg10 mi
6:53 pm93 °FPassing clouds.13 mph30%29.77 "Hg10 mi
5:53 pm94 °FPassing clouds.15 mph26%29.77 "Hg10 mi
4:53 pm94 °FPassing clouds.12 mph26%29.78 "Hg10 mi
3:53 pm93 °FPassing clouds.9 mph27%29.80 "Hg10 mi
2:53 pm92 °FPassing clouds.7 mph28%29.81 "Hg10 mi
1:53 pm91 °FSunny.7 mph32%29.83 "Hg10 mi
12:53 pm87 °FSunny.3 mph35%29.86 "Hg10 mi
11:53 am85 °FSunny.7 mph37%29.87 "Hg10 mi
10:53 am81 °FSunny.6 mph44%29.88 "Hg10 mi
9:53 am77 °FSunny.No wind48%29.88 "Hg10 mi
8:53 am73 °FSunny.No wind53%29.89 "Hg10 mi
Weather by CustomWeather, © 2019

See weather overview